| time (UTC) | temp F | wind direction | speed knots | gust knots | rain 1hr in | rain 24hr in | rain mn in | humidity % | barometer mb |
| 20260504081551 | 41 | 153 | 0.9 | 3.5 | 0.00 | 0.00 | 0.00 | 96 | 1011.0 |
| 20260504044536 | 43 | 174 | 0.9 | 2.6 | 0.00 | 0.00 | 0.00 | 95 | 1011.7 |
| 20260504043036 | 43 | 300 | 0.0 | 0.0 | 0.00 | 0.00 | 0.00 | 94 | 1011.9 |
| 20260504041529 | 44 | 300 | 0.0 | 0.0 | 0.00 | 0.00 | 0.00 | 94 | 1012.3 |
| 20260504040027 | 44 | 300 | 0.0 | 0.0 | 0.00 | 0.00 | 0.00 | 93 | 1012.3 |
| 20260504034524 | 44 | 300 | 0.0 | 0.0 | 0.00 | 0.00 | 0.00 | 91 | 1012.1 |
| 20260504033023 | 44 | 300 | 0.0 | 0.0 | 0.00 | 0.00 | 0.00 | 90 | 1012.2 |
| 20260504031523 | 44 | 300 | 0.0 | 0.9 | 0.00 | 0.00 | 0.00 | 89 | 1012.5 |
| 20260504030024 | 44 | 301 | 0.9 | 8.7 | 0.00 | 0.00 | 0.00 | 87 | 1012.7 |
| 20260504024531 | 45 | 286 | 0.0 | 0.0 | 0.00 | 0.00 | 0.00 | 86 | 1013.0 |
| 20260504023021 | 45 | 286 | 0.0 | 0.0 | 0.00 | 0.00 | 0.00 | 85 | 1012.8 |
| 20260504021524 | 46 | 286 | 0.0 | 0.0 | 0.00 | 0.00 | 0.00 | 80 | 1012.8 |
| 20260504020020 | 46 | 286 | 0.0 | 0.0 | 0.00 | 0.00 | 0.00 | 75 | 1012.7 |
| 20260504014520 | 47 | 286 | 0.0 | 0.0 | 0.00 | 0.00 | 0.00 | 72 | 1012.6 |
| 20260504013031 | 47 | 286 | 0.0 | 0.0 | 0.00 | 0.00 | 0.00 | 69 | 1012.6 |
| 20260504011519 | 48 | 286 | 0.0 | 0.9 | 0.00 | 0.00 | 0.00 | 66 | 1012.5 |
| 20260504010018 | 49 | 281 | 0.0 | 8.7 | 0.00 | 0.00 | 0.00 | 64 | 1012.5 |
| 20260504004518 | 49 | 313 | 0.0 | 2.6 | 0.00 | 0.00 | 0.00 | 61 | 1012.5 |
| 20260504003033 | 49 | 281 | 0.9 | 6.1 | 0.00 | 0.00 | 0.00 | 60 | 1012.5 |
| 20260504001516 | 49 | 265 | 0.0 | 1.7 | 0.00 | 0.00 | 0.00 | 56 | 1012.2 |
| 20260504000015 | 50 | 265 | 0.0 | 5.2 | 0.00 | 0.00 | 0.00 | 54 | 1012.1 |
| 20260503234515 | 50 | 283 | 0.9 | 4.3 | 0.00 | 0.00 | 0.00 | 53 | 1012.0 |
| 20260503233014 | 50 | 274 | 1.7 | 9.6 | 0.00 | 0.00 | 0.00 | 51 | 1011.9 |
| 20260503231515 | 51 | 299 | 0.0 | 7.0 | 0.00 | 0.00 | 0.00 | 50 | 1011.9 |
| 20260503230014 | 51 | 322 | 3.5 | 8.7 | 0.00 | 0.00 | 0.00 | 49 | 1012.0 |
| 20260503224524 | 52 | 302 | 3.5 | 7.8 | 0.00 | 0.00 | 0.00 | 45 | 1011.7 |
| 20260503223114 | 52 | 275 | 1.7 | 7.0 | 0.00 | 0.00 | 0.00 | 43 | 1011.6 |
| 20260503221512 | 52 | 329 | 1.7 | 11.3 | 0.00 | 0.00 | 0.00 | 44 | 1011.4 |
| 20260503220019 | 53 | 275 | 2.6 | 10.4 | 0.00 | 0.00 | 0.00 | 43 | 1011.4 |
| 20260503214511 | 53 | 266 | 5.2 | 15.6 | 0.00 | 0.00 | 0.00 | 42 | 1011.3 |
| 20260503213011 | 52 | 276 | 3.5 | 9.6 | 0.00 | 0.00 | 0.00 | 38 | 1011.5 |
| 20260503211512 | 53 | 330 | 3.5 | 9.6 | 0.00 | 0.00 | 0.00 | 38 | 1011.3 |
| 20260503210011 | 53 | 311 | 2.6 | 7.0 | 0.00 | 0.00 | 0.00 | 41 | 1011.3 |
| 20260503204508 | 52 | 271 | 6.1 | 15.6 | 0.00 | 0.00 | 0.00 | 37 | 1011.3 |
| 20260503203008 | 54 | 301 | 6.1 | 12.2 | 0.00 | 0.00 | 0.00 | 33 | 1011.4 |
| 20260503201506 | 54 | 330 | 1.7 | 13.0 | 0.00 | 0.00 | 0.00 | 37 | 1011.4 |
| 20260503200007 | 54 | 299 | 4.3 | 15.6 | 0.00 | 0.00 | 0.00 | 34 | 1011.5 |
| 20260503194503 | 53 | 291 | 6.1 | 17.4 | 0.00 | 0.00 | 0.00 | 35 | 1011.5 |
| 20260503193001 | 53 | 312 | 7.0 | 14.8 | 0.00 | 0.00 | 0.00 | 37 | 1012.0 |
| 20260503191559 | 53 | 257 | 4.3 | 13.9 | 0.00 | 0.00 | 0.00 | 37 | 1012.1 |
| 20260503190056 | 52 | 337 | 2.6 | 11.3 | 0.00 | 0.00 | 0.00 | 41 | 1012.3 |
| 20260503184610 | 51 | 270 | 9.6 | 19.1 | 0.00 | 0.00 | 0.00 | 38 | 1012.6 |
| 20260503183100 | 51 | 306 | 5.2 | 16.5 | 0.00 | 0.00 | 0.00 | 38 | 1012.7 |
| 20260503181555 | 51 | 275 | 6.1 | 13.0 | 0.00 | 0.00 | 0.00 | 39 | 1013.0 |
| 20260503180052 | 50 | 312 | 3.5 | 12.2 | 0.00 | 0.00 | 0.00 | 43 | 1013.0 |
| 20260503174548 | 50 | 305 | 2.6 | 8.7 | 0.00 | 0.00 | 0.00 | 44 | 1012.9 |
| 20260503173047 | 50 | 332 | 2.6 | 8.7 | 0.00 | 0.00 | 0.00 | 42 | 1013.1 |
| 20260503171604 | 49 | 338 | 1.7 | 12.2 | 0.00 | 0.00 | 0.00 | 45 | 1013.2 |